Wind_Speed
24 21 21 28 32 34 36 29 27 26 24 21 21 22 23 23 22 23 23 22 22 24 25 27 29 29 30 29 33 37 43 40 47 47 43 40 39 33 37 41 47 42 32
26 23 22 26 31 35 38 33 29 26 24 25 25 24 24 25 25 25 24 24 24 25 26 29 31 32 33 31 36 39 46 33 34 45 42 40 40 37 36 40 41 48 42
28 25 26 27 32 34 38 34 29 26 26 26 26 25 26 25 25 26 26 24 25 27 28 31 32 34 33 33 37 41 45 36 31 41 39 38 39 36 40 37 42 42 40
28 27 28 29 30 33 39 33 28 26 24 22 22 24 24 25 25 26 25 23 26 30 30 29 30 30 33 34 38 41 41 40 35 35 41 39 38 35 38 42 42 39 39
25 27 29 30 31 35 36 28 26 23 24 26 28 28 26 25 24 27 25 27 30 30 29 30 29 28 30 36 41 40 41 43 45 30 39 38 37 36 39 41 43 36 37
27 25 31 30 34 37 31 28 28 28 25 27 30 30 28 27 28 28 27 28 29 29 28 28 28 26 32 37 39 39 41 44 39 34 37 40 38 38 40 39 42 43 39
26 25 28 30 35 32 27 26 27 29 28 29 32 31 29 29 29 27 26 27 28 27 28 28 25 27 32 37 38 36 45 31 32 37 38 40 41 37 38 39 40 43 43
22 23 27 32 34 30 28 29 27 30 37 34 37 32 30 28 30 27 28 29 26 25 26 27 27 30 33 34 37 34 45 30 37 41 41 44 44 40 41 38 39 41 41
19 23 30 32 29 29 32 31 32 31 31 35 30 29 28 30 30 32 32 34 31 21 23 25 29 30 30 31 33 47 42 31 40 37 34 44 42 41 43 39 42 43 43
17 26 29 29 28 30 33 34 30 30 36 34 36 31 29 30 35 34 38 37 22 20 23 27 29 27 27 28 33 47 42 47 42 43 18 33 35 38 39 37 39 44 44
21 28 29 29 32 34 34 33 30 36 37 36 37 35 30 30 26 30 23 20 18 22 26 29 31 28 24 29 28 38 35 48 36 37 16 17 32 33 36 37 39 38 42
25 28 29 33 35 30 32 38 33 36 37 41 32 34 23 36 35 28 26 19 22 28 31 30 31 27 21 24 27 32 42 45 37 34 20 10 21 34 33 34 35 42 37
25 29 31 33 37 37 34 38 33 38 40 33 35 29 22 35 39 27 21 21 23 30 31 29 26 22 20 21 24 23 37 38 37 30 39 3 13 23 27 30 32 35 35
29 34 37 37 31 32 31 37 34 36 33 31 32 28 38 38 31 17 22 24 29 28 26 24 25 21 21 22 23 23 29 31 39 45 33 32 7 18 25 28 29 31 33
30 30 28 23 24 28 33 27 21 34 39 36 30 31 31 29 23 21 20 22 22 21 19 20 20 19 21 23 19 20 22 33 27 36 41 31 29 8 22 28 28 33 32
31 32 24 22 17 22 33 42 40 32 29 29 29 30 32 28 22 22 22 21 20 19 19 21 23 23 24 21 17 16 22 26 20 26 34 36 29 29 16 23 31 30 27
23 24 21 23 26 30 34 34 33 28 28 30 31 32 30 29 19 17 21 21 20 21 23 24 25 24 22 20 17 16 17 20 23 21 26 30 34 35 22 22 9 12 22
30 31 27 27 27 29 27 23 29 29 30 28 25 25 22 15 15 18 19 21 20 19 19 21 21 22 19 16 15 15 13 14 16 16 21 20 24 29 30 26 25 19 15
32 30 28 29 28 28 30 28 27 29 31 30 25 26 20 19 18 17 17 19 19 20 20 19 19 18 17 15 14 14 14 11 11 13 13 17 16 17 23 24 25 23 23
34 28 25 27 29 26 23 27 28 24 24 22 22 22 19 16 20 15 17 20 20 20 21 21 20 19 19 16 13 13 12 11 10 11 12 14 14 13 17 20 17 16 19
28 27 21 22 24 28 26 23 21 23 23 21 18 19 19 18 19 21 21 20 21 20 19 19 19 19 18 18 16 14 16 14 15 16 13 15 14 12 10 11 13 11 15
19 20 25 27 21 20 20 20 19 21 20 20 20 19 20 21 22 22 21 19 18 18 17 16 18 17 17 16 17 18 18 19 18 17 18 16 14 12 10 7 7 6 8
25 25 26 20 20 22 19 19 21 25 23 23 23 21 19 17 18 20 19 18 17 15 16 16 16 16 17 16 15 15 15 14 14 15 14 14 12 11 10 8 8 7 7
25 24 22 20 22 23 23 22 26 26 22 23 24 21 21 21 15 15 16 15 15 14 14 13 12 11 11 11 11 11 11 12 11 11 10 10 10 10 10 8 8 8 9
21 21 22 21 21 21 19 17 17 24 22 21 21 20 19 17 16 14 13 12 12 11 11 10 9 9 9 10 10 9 9 9 10 10 9 9 9 8 8 8 7 7 7
21 22 21 21 20 22 20 20 20 21 20 21 20 19 18 16 15 13 12 11 11 9 9 10 10 9 10 11 11 12 11 11 11 11 10 11 10 10 9 8 8 7 6
Wind_Direction
277 289 315 325 325 332 336 327 322 319 317 314 308 305 307 312 314 308 306 306 301 299 304 308 311 309 313 310 298 309 314 285 271 267 264 259 256 254 255 260 249 257 233
268 279 296 316 317 325 331 328 321 319 319 319 315 310 309 309 308 304 304 303 298 296 302 309 310 311 308 309 315 314 319 297 271 267 260 257 254 250 248 256 256 238 241
262 277 289 306 313 321 326 323 319 319 319 318 315 316 312 307 301 300 300 300 297 299 306 305 306 310 312 307 314 320 331 300 270 266 260 254 253 249 245 252 246 240 244
263 281 288 301 312 321 322 320 321 319 323 323 320 316 310 306 303 301 301 301 300 300 305 306 307 309 312 314 321 322 318 326 290 266 260 252 251 244 244 245 245 248 250
261 281 291 303 314 318 318 318 319 320 324 324 321 315 309 310 312 310 307 301 302 306 308 305 304 305 312 317 320 320 314 317 319 293 263 250 246 242 240 243 249 247 244
265 283 284 304 313 316 319 323 319 321 325 325 319 317 317 315 310 304 299 299 303 308 310 307 304 303 311 314 317 320 314 317 314 304 270 249 243 239 235 237 241 243 245
255 272 292 306 312 309 314 323 331 322 319 313 322 319 317 314 308 310 302 298 304 309 310 310 306 306 311 315 318 314 326 316 307 309 288 254 249 239 235 235 236 237 241
257 282 298 309 304 307 315 318 315 320 324 320 315 312 315 321 308 307 303 302 305 308 310 310 310 312 311 315 319 320 335 319 316 309 285 262 242 238 238 234 233 235 237
269 292 303 302 306 313 308 307 313 316 327 320 325 313 318 315 311 307 305 301 295 308 316 315 312 310 317 323 324 339 331 333 327 312 282 258 243 236 236 238 230 228 228
278 292 300 312 304 301 302 301 305 314 320 315 320 318 309 304 309 305 305 292 284 303 310 318 317 318 320 322 327 336 329 333 333 332 280 255 245 235 234 237 230 224 232
285 302 311 304 298 298 295 293 297 307 312 312 314 318 303 294 314 306 306 304 317 319 320 312 314 314 313 322 323 328 331 335 335 352 316 269 242 235 230 235 230 229 229
293 302 297 293 291 282 285 292 294 303 305 309 308 314 288 310 308 285 300 307 319 316 315 311 312 313 319 318 319 323 336 345 354 360 349 255 247 230 229 232 231 227 226
292 291 288 286 290 296 286 290 294 301 300 304 304 303 303 293 310 295 292 316 314 311 308 309 302 317 318 316 319 334 334 349 358 357 18 315 216 226 220 220 225 227 226
291 288 286 290 290 289 287 284 288 297 307 303 305 280 297 303 297 300 301 312 305 303 304 299 304 314 320 316 320 328 333 358 359 2 12 27 259 213 218 217 225 225 227
291 303 302 285 283 289 289 260 300 309 305 301 301 296 303 302 296 291 300 299 301 303 298 295 297 310 319 316 314 324 338 337 355 359 6 16 47 197 221 220 225 223 226
309 306 294 292 284 275 284 291 300 303 302 302 301 301 303 293 284 281 291 297 299 295 296 291 301 313 319 323 317 316 331 341 359 4 6 23 14 30 88 216 235 228 233
304 298 292 290 283 281 284 297 302 297 301 305 305 299 294 293 264 283 292 295 293 289 295 307 308 305 312 323 324 324 329 343 0 15 13 21 12 17 43 74 146 217 229
302 298 291 288 285 289 294 294 294 298 303 301 301 320 302 285 270 286 291 295 304 303 296 299 300 302 308 317 323 329 335 340 349 3 4 25 25 21 22 32 55 79 104
303 297 296 293 288 287 292 296 295 297 297 296 292 307 306 257 268 283 292 299 302 302 301 301 303 304 307 310 318 321 330 338 348 352 10 8 13 25 20 18 25 47 39
297 290 294 285 284 289 290 292 295 294 300 288 302 304 311 284 258 281 292 293 294 295 296 300 302 302 301 302 312 316 325 327 334 340 340 346 0 8 11 14 30 31 52
295 290 294 278 287 292 291 292 293 295 293 296 299 291 296 295 289 292 294 294 296 295 294 297 297 298 298 302 294 289 297 297 309 316 310 319 325 335 348 3 10 32 44
285 261 295 291 285 289 305 299 292 299 296 294 291 290 292 290 290 291 293 295 293 296 298 296 295 294 294 296 298 299 294 300 298 299 310 316 311 309 308 318 335 335 3
278 275 293 292 292 297 286 278 293 299 300 301 300 299 290 282 288 291 293 292 293 295 294 294 292 293 294 297 297 298 302 303 304 306 309 313 314 313 311 302 289 289 294
283 284 283 282 277 277 279 281 282 288 287 290 290 294 295 300 295 287 288 290 294 293 292 296 299 299 299 301 303 304 305 309 312 316 322 325 324 325 323 317 300 287 280
276 282 288 289 286 290 294 284 274 279 286 281 282 285 285 285 286 286 282 281 285 290 296 302 305 307 309 308 307 307 307 307 308 312 318 323 330 336 334 332 331 322 307
270 275 280 283 283 280 284 283 276 274 277 276 278 280 281 279 278 276 275 279 284 285 294 301 306 308 310 310 311 311 310 304 300 296 296 301 307 313 318 324 328 333 343
Height
3184 3185 3183 3181 3178 3176 3173 3170 3167 3164 3161 3158 3156 3154 3152 3149 3148 3145 3142 3140 3138 3135 3132 3129 3126 3123 3120 3117 3114 3109 3104 3098 3091 3093 3096 3101 3103 3108 3110 3111 3112 3102 3114
3180 3180 3180 3179 3176 3172 3169 3165 3162 3159 3157 3154 3152 3149 3147 3144 3142 3139 3137 3135 3132 3129 3127 3123 3119 3115 3112 3108 3105 3099 3092 3085 3082 3079 3084 3087 3090 3096 3098 3096 3100 3105 3110
3175 3176 3175 3173 3171 3168 3165 3161 3158 3155 3153 3150 3147 3145 3142 3139 3136 3133 3131 3128 3127 3124 3121 3116 3112 3108 3104 3100 3096 3090 3084 3078 3073 3070 3070 3075 3078 3083 3085 3086 3089 3097 3104
3169 3170 3170 3168 3167 3163 3160 3156 3153 3151 3149 3147 3144 3141 3137 3134 3131 3128 3126 3123 3121 3117 3114 3110 3106 3102 3097 3093 3088 3082 3076 3069 3064 3061 3059 3062 3067 3073 3075 3076 3078 3086 3094
3164 3164 3163 3161 3160 3159 3155 3152 3149 3147 3144 3142 3139 3136 3133 3129 3126 3122 3119 3117 3114 3110 3107 3104 3099 3095 3091 3086 3080 3075 3068 3061 3058 3050 3048 3051 3055 3061 3064 3069 3069 3075 3080
3159 3161 3160 3157 3154 3152 3149 3146 3144 3143 3140 3137 3133 3130 3127 3125 3122 3119 3116 3112 3109 3105 3102 3097 3093 3090 3085 3080 3074 3068 3062 3052 3047 3041 3037 3039 3044 3049 3053 3057 3061 3064 3067
3155 3156 3155 3152 3150 3147 3145 3143 3141 3138 3136 3133 3130 3126 3122 3119 3115 3112 3110 3107 3104 3100 3095 3091 3088 3084 3079 3073 3067 3061 3055 3047 3039 3032 3027 3028 3030 3039 3044 3046 3050 3055 3060
3150 3151 3149 3147 3144 3141 3140 3138 3135 3132 3130 3128 3123 3120 3116 3114 3110 3107 3105 3101 3097 3095 3090 3086 3081 3078 3072 3067 3060 3054 3044 3036 3029 3024 3015 3014 3019 3025 3028 3034 3041 3046 3052
3144 3144 3142 3141 3138 3136 3132 3130 3127 3125 3124 3120 3117 3114 3110 3107 3104 3100 3097 3094 3091 3087 3085 3081 3076 3070 3067 3059 3053 3047 3038 3028 3019 3008 2999 2998 3005 3012 3018 3024 3028 3034 3039
3138 3138 3137 3134 3132 3130 3127 3123 3121 3120 3117 3114 3110 3105 3103 3099 3097 3093 3089 3084 3082 3081 3079 3074 3070 3066 3061 3054 3049 3041 3030 3021 3008 2994 2988 2987 2994 3002 3009 3013 3021 3023 3030
3131 3131 3129 3126 3124 3123 3121 3118 3117 3115 3112 3109 3104 3101 3097 3095 3090 3086 3082 3081 3077 3075 3072 3069 3065 3061 3056 3050 3043 3037 3026 3015 3004 2991 2980 2980 2984 2992 3000 3005 3010 3014 3021
3127 3125 3123 3120 3117 3116 3114 3111 3110 3107 3104 3100 3096 3093 3090 3087 3084 3077 3075 3075 3071 3069 3067 3062 3058 3054 3051 3045 3040 3034 3025 3015 3002 2989 2977 2976 2978 2982 2990 2997 3002 3008 3015
3120 3118 3117 3115 3111 3111 3108 3104 3101 3100 3095 3092 3090 3086 3084 3079 3075 3072 3070 3069 3066 3064 3061 3058 3053 3050 3046 3042 3037 3030 3022 3012 3002 2990 2979 2972 2975 2978 2983 2989 2994 3001 3008
3115 3113 3110 3107 3104 3102 3098 3093 3089 3090 3088 3086 3084 3080 3077 3074 3069 3065 3064 3062 3061 3059 3056 3052 3048 3045 3042 3038 3034 3029 3022 3012 3003 2995 2984 2975 2970 2974 2979 2984 2990 2995 3000
3106 3102 3101 3097 3095 3094 3088 3074 3078 3083 3084 3080 3077 3073 3071 3067 3064 3062 3061 3059 3056 3053 3051 3048 3044 3041 3039 3034 3031 3027 3022 3016 3008 3000 2988 2980 2973 2971 2976 2981 2985 2987 2993
3094 3093 3090 3090 3088 3086 3082 3079 3079 3077 3075 3073 3069 3066 3063 3060 3059 3057 3056 3053 3051 3049 3046 3043 3041 3038 3035 3031 3028 3025 3021 3017 3011 3004 2996 2987 2980 2976 2972 2977 2977 2980 2983
3087 3086 3084 3082 3080 3079 3076 3075 3072 3071 3069 3066 3062 3058 3054 3052 3052 3052 3052 3049 3046 3045 3042 3040 3038 3034 3031 3028 3025 3023 3020 3016 3010 3006 2998 2993 2988 2984 2977 2973 2974 2978 2977
3080 3077 3075 3073 3072 3070 3070 3069 3065 3063 3061 3060 3057 3052 3048 3048 3048 3048 3047 3044 3042 3040 3038 3036 3033 3030 3028 3025 3023 3021 3019 3016 3013 3009 3005 3000 2995 2990 2986 2983 2978 2977 2977
3071 3069 3067 3065 3063 3063 3061 3061 3060 3058 3054 3052 3050 3047 3043 3043 3043 3043 3042 3040 3038 3036 3034 3031 3029 3027 3025 3023 3021 3019 3018 3016 3013 3010 3008 3005 3001 2997 2993 2989 2984 2983 2981
3063 3062 3061 3058 3054 3055 3055 3053 3052 3050 3048 3045 3043 3041 3038 3037 3037 3037 3036 3035 3033 3032 3030 3028 3026 3024 3022 3020 3019 3018 3016 3015 3014 3011 3009 3006 3004 3003 2999 2997 2993 2990 2988
3053 3052 3054 3051 3050 3048 3047 3046 3045 3044 3041 3039 3039 3037 3035 3034 3033 3032 3031 3029 3028 3026 3025 3023 3022 3020 3019 3017 3016 3015 3014 3013 3011 3010 3008 3006 3004 3003 3002 3001 2997 2996 2993
3047 3044 3045 3045 3043 3041 3041 3039 3039 3038 3036 3034 3033 3032 3030 3029 3027 3026 3025 3024 3022 3021 3020 3019 3017 3017 3015 3015 3014 3012 3010 3010 3008 3006 3005 3004 3002 3000 3000 3000 2999 2998 2997
3040 3039 3038 3038 3038 3037 3034 3034 3033 3032 3030 3027 3026 3025 3025 3025 3022 3020 3019 3018 3018 3017 3015 3015 3014 3013 3012 3010 3010 3009 3007 3006 3005 3004 3003 3001 3000 2998 2997 2997 2997 2997 2997
3033 3033 3032 3032 3031 3031 3030 3029 3027 3026 3026 3023 3021 3021 3018 3016 3017 3016 3014 3014 3013 3013 3012 3012 3011 3010 3009 3008 3007 3006 3005 3004 3003 3002 3000 2999 2998 2996 2995 2994 2995 2995 2996
3028 3026 3026 3025 3023 3022 3021 3021 3021 3019 3018 3018 3016 3015 3013 3013 3012 3012 3012 3011 3010 3010 3009 3009 3009 3008 3007 3006 3005 3004 3003 3003 3002 3000 2999 2998 2997 2996 2995 2994 2994 2993 2993
3022 3021 3021 3019 3018 3016 3016 3015 3015 3013 3012 3011 3010 3009 3008 3008 3008 3008 3008 3008 3008 3007 3007 3006 3006 3006 3005 3004 3003 3002 3001 3001 3000 2999 2998 2997 2996 2995 2995 2994 2993 2993 2993